Coastal Inspiration — CFN4970 — position and weather

sailwx.info

Track history (hours):
 
Tides and Currents Weather Stations Pressure Air Temp Water Temp Dewpoint Dewpoint Depression Visibility Wind Speed Wind Dir Waves Ship Positions

Coastal Inspiration

Last reported at 2014-Aug-29 23:33 UTC. Time now 2014-Aug-30 00:26 UTC.
Position N 49°06' W 123°29'.

Length 160 m; draft 6 m.

Type: Ship. MMSI: 316011408.

Date/timePositionNaut miles runAvg speedWind from/ knotsBaromVisibWave heightAir tempDewpointWater temp
2014-Aug-29 23:33N 49°06' W 123°29'1716.8
2014-Aug-29 22:33N 49°11' W 123°53'2 2.4
2014-Aug-29 21:32N 49°13' W 123°51'1818.3
2014-Aug-29 20:33N 49°06' W 123°26'1312.5
2014-Aug-29 19:32N 49°00' W 123°08'1111.1
2014-Aug-29 18:33N 49°03' W 123°24'1818.4
2014-Aug-29 17:33N 49°13' W 123°48'3 3.5
2014-Aug-29 16:33N 49°12' W 123°53'1817.6
2014-Aug-29 15:33N 49°06' W 123°27'1414.0
2014-Aug-29 14:33N 49°00' W 123°08'1211.8
2014-Aug-29 13:33N 49°04' W 123°25'1817.8
2014-Aug-29 12:33N 49°13' W 123°48'4 0.8
2014-Aug-29 07:33N 49°10' W 123°53'1717.2
2014-Aug-29 06:33N 49°07' W 123°28'1414.5
2014-Aug-29 05:33N 49°00' W 123°08'1312.7
2014-Aug-29 04:34N 49°04' W 123°26'1919.0
2014-Aug-29 03:33N 49°12' W 123°53'2 2.4
2014-Aug-29 02:33N 49°13' W 123°49'2020.2
2014-Aug-29 01:33N 49°05' W 123°21'10 9.8
2014-Aug-29 00:33N 49°00' W 123°08'1313.4
2014-Aug-28 23:34N 49°05' W 123°27'1818.5
2014-Aug-28 22:34N 49°12' W 123°53'1 1.1
2014-Aug-28 21:33N 49°13' W 123°52'2020.4
2014-Aug-28 20:33N 49°05' W 123°23'1110.8
2014-Aug-28 19:33N 49°00' W 123°08'1212.0
2014-Aug-28 18:34N 49°04' W 123°25'1919.3
2014-Aug-28 17:33N 49°12' W 123°52'0 0.3
2014-Aug-28 16:33N 49°12' W 123°53'1818.1
2014-Aug-28 15:33N 49°06' W 123°27'1413.6
2014-Aug-28 14:33N 49°00' W 123°08'1211.6
2014-Aug-28 13:33N 49°04' W 123°25'1818.4
2014-Aug-28 12:34N 49°13' W 123°49'3 0.6
2014-Aug-28 07:33N 49°11' W 123°53'1818.2
2014-Aug-28 06:34N 49°06' W 123°26'1413.5
2014-Aug-28 05:33N 49°00' W 123°08'1312.9
2014-Aug-28 04:33N 49°04' W 123°27'1918.8
2014-Aug-28 03:33N 49°12' W 123°53'1 0.9
2014-Aug-28 02:33N 49°12' W 123°53'2019.7
2014-Aug-28 01:33N 49°06' W 123°24'1212.0
2014-Aug-28 00:33N 49°00' W 123°08'1212.0
2014-Aug-27 23:33N 49°04' W 123°25'1919.0
2014-Aug-27 22:34N 49°13' W 123°51'2 1.6
2014-Aug-27 21:34N 49°12' W 123°53'1918.8
2014-Aug-27 20:33N 49°06' W 123°26'1312.5
2014-Aug-27 19:31N 49°00' W 123°08'1212.3
2014-Aug-27 18:34N 49°03' W 123°25'1918.9
2014-Aug-27 17:33N 49°13' W 123°50'2 2.2
2014-Aug-27 16:34N 49°12' W 123°53'1818.0
2014-Aug-27 15:33N 49°06' W 123°27'1413.2
2014-Aug-27 14:31N 49°00' W 123°08'1111.8
2014-Aug-27 13:34N 49°03' W 123°25'1818.4
2014-Aug-27 12:33N 49°13' W 123°49'3 0.7
2014-Aug-27 07:33N 49°11' W 123°53'1817.4
2014-Aug-27 06:33N 49°06' W 123°27'1414.2
2014-Aug-27 05:33N 49°00' W 123°08'1111.1
2014-Aug-27 04:33N 49°03' W 123°24'1919.2
2014-Aug-27 03:33N 49°13' W 123°50'2 1.8
2014-Aug-27 02:33N 49°13' W 123°52'2019.8
2014-Aug-27 01:33N 49°06' W 123°24'1211.7
2014-Aug-27 00:33N 49°00' W 123°08'1313.3
2014-Aug-26 23:33N 49°05' W 123°27'1818.5
2014-Aug-26 22:34N 49°12' W 123°53'2 1.9
2014-Aug-26 21:33N 49°13' W 123°51'2019.7
2014-Aug-26 20:33N 49°05' W 123°23'1110.4
2014-Aug-26 19:30N 49°00' W 123°08'1212.3
2014-Aug-26 18:33N 49°03' W 123°25'1918.9
2014-Aug-26 17:34N 49°13' W 123°50'3 2.6
2014-Aug-26 16:34N 49°12' W 123°53'1817.9
2014-Aug-26 15:34N 49°06' W 123°27'1413.7
2014-Aug-26 14:33N 49°00' W 123°08'1212.0
2014-Aug-26 13:33N 49°04' W 123°25'1818.5
2014-Aug-26 12:33N 49°13' W 123°49'3 0.5
2014-Aug-26 07:32N 49°12' W 123°53'1717.6
2014-Aug-26 06:33N 49°07' W 123°28'1514.6
2014-Aug-26 05:33N 49°00' W 123°08'1110.8
2014-Aug-26 04:33N 49°03' W 123°24'1919.3
2014-Aug-26 03:33N 49°13' W 123°49'2 1.6
2014-Aug-26 02:33N 49°13' W 123°52'1918.8
2014-Aug-26 01:33N 49°06' W 123°25'1212.4
2014-Aug-26 00:33N 49°00' W 123°08'1413.6
2014-Aug-25 23:33N 49°05' W 123°28'17 8.5
2014-Aug-25 21:33N 49°13' W 123°51'2019.7
2014-Aug-25 20:33N 49°05' W 123°23'1110.7
2014-Aug-25 19:31N 49°00' W 123°08'1212.5
2014-Aug-25 18:33N 49°04' W 123°25'1919.1
2014-Aug-25 17:33N 49°13' W 123°51'2 1.8
2014-Aug-25 16:33N 49°12' W 123°53'1717.5
2014-Aug-25 15:33N 49°07' W 123°27'1413.7
2014-Aug-25 14:31N 49°00' W 123°08'1111.8
2014-Aug-25 13:34N 49°03' W 123°24'1818.4
2014-Aug-25 12:33N 49°13' W 123°48'4 0.7
2014-Aug-25 07:33N 49°11' W 123°53'1717.5
2014-Aug-25 06:33N 49°07' W 123°28'1414.3
2014-Aug-25 05:33N 49°00' W 123°08'1212.4
2014-Aug-25 04:33N 49°04' W 123°26'1919.1
2014-Aug-25 03:33N 49°12' W 123°53'0 0.4
2014-Aug-25 02:34N 49°12' W 123°52'1919.2
2014-Aug-25 01:34N 49°06' W 123°25'1212.2
2014-Aug-25 00:34N 49°00' W 123°08'1212.3
2014-Aug-24 23:33N 49°04' W 123°26'1919.2
2014-Aug-24 22:33N 49°12' W 123°52'1 0.7
2014-Aug-24 21:34N 49°12' W 123°53'1918.9
2014-Aug-24 20:34N 49°06' W 123°26'1312.8
2014-Aug-24 19:33N 49°00' W 123°08'1111.2
2014-Aug-24 18:33N 49°03' W 123°24'1918.8
2014-Aug-24 17:33N 49°13' W 123°49'3 3.5
2014-Aug-24 16:34N 49°11' W 123°53'1717.4
2014-Aug-24 15:33N 49°07' W 123°27'1414.4
2014-Aug-24 14:33N 49°00' W 123°08'1111.4
2014-Aug-24 13:33N 49°03' W 123°25'1818.2
2014-Aug-24 12:33N 49°13' W 123°49'4 0.8
2014-Aug-24 07:33N 49°11' W 123°53'1717.4
2014-Aug-24 06:33N 49°06' W 123°28'1414.5
2014-Aug-24 05:33N 49°00' W 123°08'1413.4
2014-Aug-24 04:33N 49°05' W 123°27'1818.1
2014-Aug-24 03:34N 49°12' W 123°53'2 1.7
2014-Aug-24 02:33N 49°10' W 123°53'1717.1
2014-Aug-24 01:33N 49°07' W 123°28'1514.6
2014-Aug-24 00:33N 49°00' W 123°08'1212.0
2014-Aug-23 23:33N 49°04' W 123°25'1919.0
2014-Aug-23 22:34N 49°12' W 123°51'0 0.5
2014-Aug-23 21:33N 49°12' W 123°52'1919.0
2014-Aug-23 20:34N 49°05' W 123°25'1212.3
2014-Aug-23 19:33N 49°00' W 123°08'29 1.8
2014-Aug-23 03:33N 49°13' W 123°48'4 3.6
2014-Aug-23 02:33N 49°12' W 123°53'1818.2
2014-Aug-23 01:33N 49°06' W 123°26'1313.6
2014-Aug-23 00:33N 49°00' W 123°08'1312.6
2014-Aug-22 23:33N 49°04' W 123°26'1919.1
2014-Aug-22 22:33N 49°12' W 123°53'2 2.2
2014-Aug-22 21:33N 49°13' W 123°50'2019.6
2014-Aug-22 20:33N 49°04' W 123°23'1110.8
2014-Aug-22 19:33N 49°00' W 123°08'1312.9
2014-Aug-22 18:33N 49°04' W 123°27'1918.8
2014-Aug-22 17:34N 49°12' W 123°53'1 1.1
2014-Aug-22 16:33N 49°13' W 123°52'1918.8
2014-Aug-22 15:33N 49°06' W 123°25'1312.6
2014-Aug-22 14:33N 49°00' W 123°08'1312.7
2014-Aug-22 13:33N 49°05' W 123°26'1818.0
2014-Aug-22 12:33N 49°13' W 123°51'3 0.6
2014-Aug-22 07:33N 49°10' W 123°53'1616.2
2014-Aug-22 06:33N 49°07' W 123°29'1515.4
2014-Aug-22 05:33N 49°00' W 123°08'1010.3
2014-Aug-22 04:33N 49°03' W 123°23'2019.9
2014-Aug-22 03:33N 49°13' W 123°49'0 0.1
2014-Aug-22 02:33N 49°13' W 123°49'1717.3
2014-Aug-22 01:33N 49°06' W 123°25'1312.6
2014-Aug-22 00:33N 49°00' W 123°08'1312.6
2014-Aug-21 23:34N 49°04' W 123°26'1918.9
2014-Aug-21 22:34N 49°12' W 123°52'1 0.9
2014-Aug-21 21:33N 49°13' W 123°51'2020.4
2014-Aug-21 20:34N 49°06' W 123°22'1110.8
2014-Aug-21 19:33N 49°00' W 123°08'1312.7
2014-Aug-21 18:33N 49°04' W 123°26'1918.9
2014-Aug-21 17:33N 49°12' W 123°53'1 0.8
2014-Aug-21 16:33N 49°13' W 123°52'1818.0
2014-Aug-21 15:33N 49°06' W 123°26'1313.4
2014-Aug-21 14:34N 49°00' W 123°08'1817.5
2014-Aug-21 13:33N 49°07' W 123°33'1212.5
2014-Aug-21 12:33N 49°13' W 123°50'4 3.1
2014-Aug-21 11:16N 49°10' W 123°53'0 0.0
2014-Aug-21 10:19N 49°10' W 123°53'3 1.1
2014-Aug-21 07:33N 49°13' W 123°51'2019.8
2014-Aug-21 06:34N 49°05' W 123°23'1111.2
2014-Aug-21 05:33N 49°00' W 123°08'1313.3
2014-Aug-21 04:34N 49°05' W 123°27'1818.4
2014-Aug-21 03:33N 49°11' W 123°53'3 2.9
2014-Aug-21 02:33N 49°13' W 123°49'2019.5
2014-Aug-21 01:33N 49°05' W 123°22'1010.4
2014-Aug-21 00:33N 49°00' W 123°08'1312.8
2014-Aug-20 23:34N 49°04' W 123°26'1818.1
2014-Aug-20 22:33N 49°12' W 123°51'1 0.8
2014-Aug-20 21:33N 49°13' W 123°51'1919.0
2014-Aug-20 20:34N 49°05' W 123°24'1211.7
2014-Aug-20 19:34N 49°00' W 123°08'1211.9
2014-Aug-20 18:33N 49°04' W 123°25'1817.9
2014-Aug-20 17:33N 49°13' W 123°49'2 2.5
2014-Aug-20 16:33N 49°12' W 123°53'1818.2
2014-Aug-20 15:33N 49°06' W 123°26'1313.3
2014-Aug-20 14:33N 49°00' W 123°08'1716.7
2014-Aug-20 13:33N 49°07' W 123°32'1212.2
2014-Aug-20 12:33N 49°13' W 123°48'5 2.0
2014-Aug-20 10:06N 49°10' W 123°53'0 0.0
2014-Aug-20 09:30N 49°10' W 123°53'1 0.3
2014-Aug-20 07:33N 49°10' W 123°53'1616.6
2014-Aug-20 06:34N 49°07' W 123°29'1515.2
2014-Aug-20 05:33N 49°00' W 123°08'1211.7
2014-Aug-20 04:34N 49°04' W 123°25'1818.3
2014-Aug-20 03:33N 49°13' W 123°49'3 3.1
2014-Aug-20 02:32N 49°11' W 123°53'1717.8
2014-Aug-20 01:33N 49°06' W 123°28'1414.4
2014-Aug-20 00:34N 49°00' W 123°08'  
Track history (hours):
 
Tides and Currents Weather Stations Pressure Air Temp Water Temp Dewpoint Dewpoint Depression Visibility Wind Speed Wind Dir Waves Ship Positions

Coastal Inspiration

Last reported at 2014-Aug-29 23:33 UTC. Time now 2014-Aug-30 00:26 UTC.
Position N 49°06' W 123°29'.

Length 160 m; draft 6 m.

Type: Ship. MMSI: 316011408.

Date/timePositionNaut miles runAvg speedWind from/ knotsBaromVisibWave heightAir tempDewpointWater temp
2014-Aug-29 23:33N 49°06' W 123°29'1716.8
2014-Aug-29 22:33N 49°11' W 123°53'2 2.4
2014-Aug-29 21:32N 49°13' W 123°51'1818.3
2014-Aug-29 20:33N 49°06' W 123°26'1312.5
2014-Aug-29 19:32N 49°00' W 123°08'1111.1
2014-Aug-29 18:33N 49°03' W 123°24'1818.4
2014-Aug-29 17:33N 49°13' W 123°48'3 3.5
2014-Aug-29 16:33N 49°12' W 123°53'1817.6
2014-Aug-29 15:33N 49°06' W 123°27'1414.0
2014-Aug-29 14:33N 49°00' W 123°08'1211.8
2014-Aug-29 13:33N 49°04' W 123°25'1817.8
2014-Aug-29 12:33N 49°13' W 123°48'4 0.8
2014-Aug-29 07:33N 49°10' W 123°53'1717.2
2014-Aug-29 06:33N 49°07' W 123°28'1414.5
2014-Aug-29 05:33N 49°00' W 123°08'1312.7
2014-Aug-29 04:34N 49°04' W 123°26'1919.0
2014-Aug-29 03:33N 49°12' W 123°53'2 2.4
2014-Aug-29 02:33N 49°13' W 123°49'2020.2
2014-Aug-29 01:33N 49°05' W 123°21'10 9.8
2014-Aug-29 00:33N 49°00' W 123°08'1313.4
2014-Aug-28 23:34N 49°05' W 123°27'1818.5
2014-Aug-28 22:34N 49°12' W 123°53'1 1.1
2014-Aug-28 21:33N 49°13' W 123°52'2020.4
2014-Aug-28 20:33N 49°05' W 123°23'1110.8
2014-Aug-28 19:33N 49°00' W 123°08'1212.0
2014-Aug-28 18:34N 49°04' W 123°25'1919.3
2014-Aug-28 17:33N 49°12' W 123°52'0 0.3
2014-Aug-28 16:33N 49°12' W 123°53'1818.1
2014-Aug-28 15:33N 49°06' W 123°27'1413.6
2014-Aug-28 14:33N 49°00' W 123°08'1211.6
2014-Aug-28 13:33N 49°04' W 123°25'1818.4
2014-Aug-28 12:34N 49°13' W 123°49'3 0.6
2014-Aug-28 07:33N 49°11' W 123°53'1818.2
2014-Aug-28 06:34N 49°06' W 123°26'1413.5
2014-Aug-28 05:33N 49°00' W 123°08'1312.9
2014-Aug-28 04:33N 49°04' W 123°27'1918.8
2014-Aug-28 03:33N 49°12' W 123°53'1 0.9
2014-Aug-28 02:33N 49°12' W 123°53'2019.7
2014-Aug-28 01:33N 49°06' W 123°24'1212.0
2014-Aug-28 00:33N 49°00' W 123°08'1212.0
2014-Aug-27 23:33N 49°04' W 123°25'1919.0
2014-Aug-27 22:34N 49°13' W 123°51'2 1.6
2014-Aug-27 21:34N 49°12' W 123°53'1918.8
2014-Aug-27 20:33N 49°06' W 123°26'1312.5
2014-Aug-27 19:31N 49°00' W 123°08'1212.3
2014-Aug-27 18:34N 49°03' W 123°25'1918.9
2014-Aug-27 17:33N 49°13' W 123°50'2 2.2
2014-Aug-27 16:34N 49°12' W 123°53'1818.0
2014-Aug-27 15:33N 49°06' W 123°27'1413.2
2014-Aug-27 14:31N 49°00' W 123°08'1111.8
2014-Aug-27 13:34N 49°03' W 123°25'1818.4
2014-Aug-27 12:33N 49°13' W 123°49'3 0.7
2014-Aug-27 07:33N 49°11' W 123°53'1817.4
2014-Aug-27 06:33N 49°06' W 123°27'1414.2
2014-Aug-27 05:33N 49°00' W 123°08'1111.1
2014-Aug-27 04:33N 49°03' W 123°24'1919.2
2014-Aug-27 03:33N 49°13' W 123°50'2 1.8
2014-Aug-27 02:33N 49°13' W 123°52'2019.8
2014-Aug-27 01:33N 49°06' W 123°24'1211.7
2014-Aug-27 00:33N 49°00' W 123°08'1313.3
2014-Aug-26 23:33N 49°05' W 123°27'1818.5
2014-Aug-26 22:34N 49°12' W 123°53'2 1.9
2014-Aug-26 21:33N 49°13' W 123°51'2019.7
2014-Aug-26 20:33N 49°05' W 123°23'1110.4
2014-Aug-26 19:30N 49°00' W 123°08'1212.3
2014-Aug-26 18:33N 49°03' W 123°25'1918.9
2014-Aug-26 17:34N 49°13' W 123°50'3 2.6
2014-Aug-26 16:34N 49°12' W 123°53'1817.9
2014-Aug-26 15:34N 49°06' W 123°27'1413.7
2014-Aug-26 14:33N 49°00' W 123°08'1212.0
2014-Aug-26 13:33N 49°04' W 123°25'1818.5
2014-Aug-26 12:33N 49°13' W 123°49'3 0.5
2014-Aug-26 07:32N 49°12' W 123°53'1717.6
2014-Aug-26 06:33N 49°07' W 123°28'1514.6
2014-Aug-26 05:33N 49°00' W 123°08'1110.8
2014-Aug-26 04:33N 49°03' W 123°24'1919.3
2014-Aug-26 03:33N 49°13' W 123°49'2 1.6
2014-Aug-26 02:33N 49°13' W 123°52'1918.8
2014-Aug-26 01:33N 49°06' W 123°25'1212.4
2014-Aug-26 00:33N 49°00' W 123°08'1413.6
2014-Aug-25 23:33N 49°05' W 123°28'17 8.5
2014-Aug-25 21:33N 49°13' W 123°51'2019.7
2014-Aug-25 20:33N 49°05' W 123°23'1110.7
2014-Aug-25 19:31N 49°00' W 123°08'1212.5
2014-Aug-25 18:33N 49°04' W 123°25'1919.1
2014-Aug-25 17:33N 49°13' W 123°51'2 1.8
2014-Aug-25 16:33N 49°12' W 123°53'1717.5
2014-Aug-25 15:33N 49°07' W 123°27'1413.7
2014-Aug-25 14:31N 49°00' W 123°08'1111.8
2014-Aug-25 13:34N 49°03' W 123°24'1818.4
2014-Aug-25 12:33N 49°13' W 123°48'4 0.7
2014-Aug-25 07:33N 49°11' W 123°53'1717.5
2014-Aug-25 06:33N 49°07' W 123°28'1414.3
2014-Aug-25 05:33N 49°00' W 123°08'1212.4
2014-Aug-25 04:33N 49°04' W 123°26'1919.1
2014-Aug-25 03:33N 49°12' W 123°53'0 0.4
2014-Aug-25 02:34N 49°12' W 123°52'1919.2
2014-Aug-25 01:34N 49°06' W 123°25'1212.2
2014-Aug-25 00:34N 49°00' W 123°08'1212.3
2014-Aug-24 23:33N 49°04' W 123°26'1919.2
2014-Aug-24 22:33N 49°12' W 123°52'1 0.7
2014-Aug-24 21:34N 49°12' W 123°53'1918.9
2014-Aug-24 20:34N 49°06' W 123°26'1312.8
2014-Aug-24 19:33N 49°00' W 123°08'1111.2
2014-Aug-24 18:33N 49°03' W 123°24'1918.8
2014-Aug-24 17:33N 49°13' W 123°49'3 3.5
2014-Aug-24 16:34N 49°11' W 123°53'1717.4
2014-Aug-24 15:33N 49°07' W 123°27'1414.4
2014-Aug-24 14:33N 49°00' W 123°08'1111.4
2014-Aug-24 13:33N 49°03' W 123°25'1818.2
2014-Aug-24 12:33N 49°13' W 123°49'4 0.8
2014-Aug-24 07:33N 49°11' W 123°53'1717.4
2014-Aug-24 06:33N 49°06' W 123°28'1414.5
2014-Aug-24 05:33N 49°00' W 123°08'1413.4
2014-Aug-24 04:33N 49°05' W 123°27'1818.1
2014-Aug-24 03:34N 49°12' W 123°53'2 1.7
2014-Aug-24 02:33N 49°10' W 123°53'1717.1
2014-Aug-24 01:33N 49°07' W 123°28'1514.6
2014-Aug-24 00:33N 49°00' W 123°08'1212.0
2014-Aug-23 23:33N 49°04' W 123°25'1919.0
2014-Aug-23 22:34N 49°12' W 123°51'0 0.5
2014-Aug-23 21:33N 49°12' W 123°52'1919.0
2014-Aug-23 20:34N 49°05' W 123°25'1212.3
2014-Aug-23 19:33N 49°00' W 123°08'29 1.8
2014-Aug-23 03:33N 49°13' W 123°48'4 3.6
2014-Aug-23 02:33N 49°12' W 123°53'1818.2
2014-Aug-23 01:33N 49°06' W 123°26'1313.6
2014-Aug-23 00:33N 49°00' W 123°08'1312.6
2014-Aug-22 23:33N 49°04' W 123°26'1919.1
2014-Aug-22 22:33N 49°12' W 123°53'2 2.2
2014-Aug-22 21:33N 49°13' W 123°50'2019.6
2014-Aug-22 20:33N 49°04' W 123°23'1110.8
2014-Aug-22 19:33N 49°00' W 123°08'1312.9
2014-Aug-22 18:33N 49°04' W 123°27'1918.8
2014-Aug-22 17:34N 49°12' W 123°53'1 1.1
2014-Aug-22 16:33N 49°13' W 123°52'1918.8
2014-Aug-22 15:33N 49°06' W 123°25'1312.6
2014-Aug-22 14:33N 49°00' W 123°08'1312.7
2014-Aug-22 13:33N 49°05' W 123°26'1818.0
2014-Aug-22 12:33N 49°13' W 123°51'3 0.6
2014-Aug-22 07:33N 49°10' W 123°53'1616.2
2014-Aug-22 06:33N 49°07' W 123°29'1515.4
2014-Aug-22 05:33N 49°00' W 123°08'1010.3
2014-Aug-22 04:33N 49°03' W 123°23'2019.9
2014-Aug-22 03:33N 49°13' W 123°49'0 0.1
2014-Aug-22 02:33N 49°13' W 123°49'1717.3
2014-Aug-22 01:33N 49°06' W 123°25'1312.6
2014-Aug-22 00:33N 49°00' W 123°08'1312.6
2014-Aug-21 23:34N 49°04' W 123°26'1918.9
2014-Aug-21 22:34N 49°12' W 123°52'1 0.9
2014-Aug-21 21:33N 49°13' W 123°51'2020.4
2014-Aug-21 20:34N 49°06' W 123°22'1110.8
2014-Aug-21 19:33N 49°00' W 123°08'1312.7
2014-Aug-21 18:33N 49°04' W 123°26'1918.9
2014-Aug-21 17:33N 49°12' W 123°53'1 0.8
2014-Aug-21 16:33N 49°13' W 123°52'1818.0
2014-Aug-21 15:33N 49°06' W 123°26'1313.4
2014-Aug-21 14:34N 49°00' W 123°08'1817.5
2014-Aug-21 13:33N 49°07' W 123°33'1212.5
2014-Aug-21 12:33N 49°13' W 123°50'4 3.1
2014-Aug-21 11:16N 49°10' W 123°53'0 0.0
2014-Aug-21 10:19N 49°10' W 123°53'3 1.1
2014-Aug-21 07:33N 49°13' W 123°51'2019.8
2014-Aug-21 06:34N 49°05' W 123°23'1111.2
2014-Aug-21 05:33N 49°00' W 123°08'1313.3
2014-Aug-21 04:34N 49°05' W 123°27'1818.4
2014-Aug-21 03:33N 49°11' W 123°53'3 2.9
2014-Aug-21 02:33N 49°13' W 123°49'2019.5
2014-Aug-21 01:33N 49°05' W 123°22'1010.4
2014-Aug-21 00:33N 49°00' W 123°08'1312.8
2014-Aug-20 23:34N 49°04' W 123°26'1818.1
2014-Aug-20 22:33N 49°12' W 123°51'1 0.8
2014-Aug-20 21:33N 49°13' W 123°51'1919.0
2014-Aug-20 20:34N 49°05' W 123°24'1211.7
2014-Aug-20 19:34N 49°00' W 123°08'1211.9
2014-Aug-20 18:33N 49°04' W 123°25'1817.9
2014-Aug-20 17:33N 49°13' W 123°49'2 2.5
2014-Aug-20 16:33N 49°12' W 123°53'1818.2
2014-Aug-20 15:33N 49°06' W 123°26'1313.3
2014-Aug-20 14:33N 49°00' W 123°08'1716.7
2014-Aug-20 13:33N 49°07' W 123°32'1212.2
2014-Aug-20 12:33N 49°13' W 123°48'5 2.0
2014-Aug-20 10:06N 49°10' W 123°53'0 0.0
2014-Aug-20 09:30N 49°10' W 123°53'1 0.3
2014-Aug-20 07:33N 49°10' W 123°53'1616.6
2014-Aug-20 06:34N 49°07' W 123°29'1515.2
2014-Aug-20 05:33N 49°00' W 123°08'1211.7
2014-Aug-20 04:34N 49°04' W 123°25'1818.3
2014-Aug-20 03:33N 49°13' W 123°49'3 3.1
2014-Aug-20 02:32N 49°11' W 123°53'1717.8
2014-Aug-20 01:33N 49°06' W 123°28'1414.4
2014-Aug-20 00:34N 49°00' W 123°08'  

Dump ship's entire track history